EW4498 Weather Reports


time (UTC)temp
C
wind
direction
speed
KPH
gust
KPH
rain 1hr
cm
rain 24hr
cm
rain mn
cm
humidity
%
barometer
mb
20260504050154 12 226 6.4 14.5 0.00 0.84 0.20 90 1006.5
20260504044602 12 231 4.8 12.9 0.00 0.84 0.20 89 1006.3
20260504043042 12 231 6.4 12.9 0.00 0.84 0.20 89 1006.3
20260504041516 12 215 4.8 12.9 0.00 0.84 0.20 89 1006.3
20260504040117 12 230 4.8 12.9 0.00 0.84 0.20 89 1006.2
20260504034618 12 232 9.7 17.7 0.00 0.84 0.20 90 1006.2
20260504033016 12 229 3.2 16.1 0.00 0.84 0.20 90 1006.3
20260504031601 13 223 6.4 14.5 0.00 0.84 0.20 90 1006.3
20260504030051 13 226 4.8 11.3 0.00 0.84 0.20 90 1006.3
20260504024538 13 220 8.0 16.1 0.00 0.84 0.20 90 1006.4
20260504023138 13 265 8.0 20.9 0.00 0.84 0.20 89 1006.4
20260504021549 13 241 6.4 20.9 0.00 0.84 0.20 90 1006.3
20260504020138 13 229 6.4 19.3 0.00 0.84 0.20 91 1006.2
20260504014542 13 212 4.8 17.7 0.00 0.84 0.20 92 1006.2
20260504013137 13 221 3.2 12.9 0.00 0.84 0.20 92 1006.2
20260504011550 13 212 3.2 8.0 0.00 0.84 0.20 92 1006.2
20260504010037 12 222 3.2 8.0 0.00 0.84 0.20 92 1006.2
20260504004532 12 221 3.2 8.0 0.03 0.84 0.20 92 1006.2
20260504003134 12 210 1.6 6.4 0.03 0.84 0.20 92 1006.2
20260504001607 12 246 0.0 4.8 0.03 0.84 0.20 92 1006.0
20260504000041 12 252 0.0 3.2 0.03 0.84 0.20 92 1006.1
20260503234646 12 250 0.0 0.0 0.00 0.81 0.18 91 1006.0
20260503233102 12 250 0.0 0.0 0.10 0.81 0.18 91 1006.1
20260503231552 12 249 0.0 3.2 0.15 0.81 0.18 91 1006.2
20260503230140 12 249 0.0 1.6 0.18 0.81 0.18 91 1006.5
20260503224557 12 249 0.0 0.0 0.20 0.81 0.18 91 1006.8
20260503223153 12 249 0.0 0.0 0.15 0.71 0.10 91 1007.0
20260503221544 12 249 0.0 1.6 0.13 0.69 0.05 90 1007.2
20260503220051 12 249 0.0 0.0 0.13 0.64 0.00 90 1007.2
20260503214512 12 249 0.0 0.0 0.36 0.61 0.61 90 1007.6
20260503213056 12 249 0.0 0.0 0.41 0.58 0.58 90 1007.7
20260503211534 12 249 0.0 1.6 0.41 0.56 0.56 89 1007.8
20260503210034 12 261 0.0 4.8 0.36 0.51 0.51 89 1008.0
20260503204501 12 23 0.0 3.2 0.18 0.23 0.23 88 1007.4
20260503203055 12 53 1.6 4.8 0.15 0.18 0.18 87 1007.5
20260503201520 13 53 4.8 9.7 0.15 0.15 0.15 86 1007.1
20260503200143 13 42 1.6 4.8 0.13 0.15 0.15 84 1007.7
20260503194545 13 265 0.0 4.8 0.05 0.05 0.05 82 1008.5
20260503193139 14 337 0.0 3.2 0.03 0.05 0.05 78 1008.1
20260503191545 14 33 1.6 6.4 0.00 0.03 0.03 75 1007.8
20260503190150 14 52 0.0 3.2 0.00 0.03 0.03 74 1007.7
20260503184551 15 38 0.0 6.4 0.00 0.03 0.03 74 1007.5
20260503183147 15 43 3.2 6.4 0.00 0.03 0.03 73 1007.5
20260503181548 15 61 1.6 4.8 0.00 0.03 0.03 73 1007.5
20260503180038 15 55 1.6 6.4 0.00 0.03 0.03 72 1007.7
20260503174527 15 50 4.8 8.0 0.00 0.03 0.03 71 1007.7
20260503173025 16 71 1.6 8.0 0.00 0.03 0.03 72 1007.9
20260503171533 16 79 3.2 6.4 0.00 0.03 0.03 71 1008.1
20260503081536 13 217 0.0 8.0 0.00 0.00 0.00 80 1011.7
20260503071517 12 275 0.0 8.0 0.00 0.00 0.00 84 1011.6
20260503054509 11 319 4.8 9.7 0.00 0.00 0.00 87 1011.3